N2454E LOWL-LOWL

Flight info

Callsign N2454E
Flight time 0h 29m
Altitude 6000
Route VFR
Aircraft C172/L-SFG/C

Departure

Time 2026-04-24 14:44
Airport Linz-Hörsching Airport (LOWL)

Arrival

Time 2026-04-24 15:14
Airport Linz-Hörsching Airport (LOWL)
Time Latitude Longitude Altitude Speed Heading
2026-04-24 14:33 48.23110 14.19444 975 ft 0 kts 343°
2026-04-24 14:34 48.23112 14.19442 975 ft 0 kts 329°
2026-04-24 14:40 48.23134 14.19436 980 ft 7 kts 355°
2026-04-24 14:40 48.23197 14.19423 971 ft 13 kts
2026-04-24 14:41 48.23309 14.19467 983 ft 20 kts 22°
2026-04-24 14:41 48.23343 14.19687 972 ft 27 kts 89°
2026-04-24 14:41 48.23372 14.20009 970 ft 35 kts 89°
2026-04-24 14:41 48.23403 14.20385 967 ft 40 kts 86°
2026-04-24 14:42 48.23365 14.20765 963 ft 35 kts 99°
2026-04-24 14:42 48.23370 14.21009 962 ft 15 kts 51°
2026-04-24 14:42 48.23415 14.20924 962 ft 18 kts 236°
2026-04-24 14:42 48.23390 14.20731 963 ft 27 kts 271°
2026-04-24 14:43 48.23376 14.20280 987 ft 60 kts 271°
2026-04-24 14:43 48.23321 14.19570 1080 ft 70 kts 279°
2026-04-24 14:43 48.23404 14.18999 1243 ft 70 kts 284°
2026-04-24 14:43 48.23429 14.18812 1259 ft 75 kts 282°
2026-04-24 14:44 48.23410 14.18056 1502 ft 70 kts 261°
2026-04-24 14:44 48.23221 14.17287 1574 ft 82 kts 265°
2026-04-24 14:44 48.23492 14.16577 1706 ft 92 kts 322°
2026-04-24 14:44 48.24119 14.16352 1981 ft 95 kts 352°
2026-04-24 14:45 48.24747 14.16886 2118 ft 114 kts 35°
2026-04-24 14:45 48.25309 14.17613 2364 ft 107 kts 44°
2026-04-24 14:45 48.25644 14.18736 2391 ft 127 kts 68°
2026-04-24 14:45 48.25867 14.20054 2356 ft 134 kts 72°
2026-04-24 14:46 48.25982 14.21525 2159 ft 145 kts 91°
2026-04-24 14:46 48.25807 14.22950 2060 ft 135 kts 103°
2026-04-24 14:46 48.25602 14.24293 2037 ft 124 kts 99°
2026-04-24 14:46 48.25600 14.25566 1946 ft 119 kts 53°
2026-04-24 14:47 48.26156 14.26387 1949 ft 109 kts 39°
2026-04-24 14:47 48.26567 14.27376 1874 ft 119 kts 71°
2026-04-24 14:47 48.26766 14.28614 1793 ft 122 kts 68°
2026-04-24 14:47 48.27096 14.29763 1630 ft 117 kts 41°
2026-04-24 14:48 48.27736 14.29872 1312 ft 94 kts 321°
2026-04-24 14:48 48.28169 14.29237 1299 ft 63 kts 302°
2026-04-24 14:48 48.28655 14.28924 1086 ft 89 kts 332°
2026-04-24 14:48 48.29236 14.28722 1085 ft 85 kts 345°
2026-04-24 14:49 48.29747 14.28600 1108 ft 71 kts 317°
2026-04-24 14:49 48.30157 14.28309 984 ft 79 kts 341°
2026-04-24 14:49 48.30648 14.28558 1017 ft 90 kts 51°
2026-04-24 14:49 48.30917 14.28882 1044 ft 85 kts 11°
2026-04-24 14:50 48.31473 14.29352 999 ft 94 kts 27°
2026-04-24 14:50 48.31901 14.30090 1030 ft 89 kts 44°
2026-04-24 14:50 48.32168 14.30948 979 ft 96 kts 43°
2026-04-24 14:50 48.32577 14.31709 1094 ft 85 kts 52°
2026-04-24 14:51 48.32861 14.32496 1135 ft 87 kts 39°
2026-04-24 14:51 48.33176 14.33217 1108 ft 83 kts 34°
2026-04-24 14:51 48.33437 14.33358 1221 ft 67 kts 328°
2026-04-24 14:51 48.33928 14.33229 1305 ft 74 kts
2026-04-24 14:52 48.34096 14.34035 1283 ft 107 kts 129°
2026-04-24 14:52 48.34055 14.35178 1378 ft 120 kts 87°
2026-04-24 14:52 48.33890 14.36362 1420 ft 120 kts 78°
2026-04-24 14:52 48.33900 14.37540 1529 ft 114 kts 60°
2026-04-24 14:53 48.34208 14.38533 1742 ft 98 kts 47°
2026-04-24 14:53 48.34490 14.39517 1589 ft 129 kts 71°
2026-04-24 14:53 48.34699 14.40805 1321 ft 128 kts 23°
2026-04-24 14:53 48.35187 14.41556 1512 ft 101 kts 77°
2026-04-24 14:54 48.35314 14.41584 1489 ft 80 kts 210°
2026-04-24 14:54 48.34762 14.41972 1543 ft 105 kts 115°
2026-04-24 14:54 48.35034 14.42657 1485 ft 74 kts 332°
2026-04-24 14:54 48.34913 14.42194 1385 ft 101 kts 166°
2026-04-24 14:55 48.34827 14.42801 1269 ft 105 kts 25°
2026-04-24 14:55 48.35018 14.42286 1338 ft 72 kts 241°
2026-04-24 14:55 48.35182 14.41780 1234 ft 83 kts 314°
2026-04-24 14:55 48.35578 14.41322 1337 ft 58 kts 306°
2026-04-24 14:56 48.35632 14.40691 1305 ft 71 kts 270°
2026-04-24 14:56 48.35894 14.40242 1326 ft 63 kts 319°
2026-04-24 14:56 48.35891 14.39705 1457 ft 69 kts 261°
2026-04-24 14:56 48.36196 14.39336 1513 ft 82 kts 20°
2026-04-24 14:57 48.36121 14.40216 1411 ft 95 kts 115°
2026-04-24 14:57 48.35780 14.40972 1114 ft 88 kts 155°
2026-04-24 14:57 48.35314 14.41432 1278 ft 79 kts 198°
2026-04-24 14:57 48.34946 14.40919 1365 ft 76 kts 282°
2026-04-24 14:58 48.35542 14.40688 1278 ft 95 kts 348°
2026-04-24 14:58 48.35948 14.41001 1246 ft 94 kts 95°
2026-04-24 14:58 48.35922 14.41470 1388 ft 469 kts 300°
2026-04-24 14:58 48.35975 14.41399 1358 ft 0 kts 275°
2026-04-24 14:59 48.35993 14.40830 1539 ft 93 kts 283°
2026-04-24 14:59 48.36327 14.40557 1558 ft 97 kts 61°
2026-04-24 14:59 48.35795 14.40995 1112 ft 92 kts 188°
2026-04-24 14:59 48.35272 14.40957 1222 ft 81 kts 214°
2026-04-24 15:00 48.34969 14.40495 1518 ft 42 kts 267°
2026-04-24 15:00 48.35338 14.40296 1382 ft 97 kts 14°
2026-04-24 15:00 48.35946 14.40533 1294 ft 83 kts 345°
2026-04-24 15:00 48.36421 14.40571 1378 ft 89 kts 46°
2026-04-24 15:01 48.36914 14.41171 1521 ft 91 kts
2026-04-24 15:01 48.36826 14.40906 1453 ft 115 kts 181°
2026-04-24 15:01 48.36111 14.41096 1289 ft 84 kts 195°
2026-04-24 15:01 48.35721 14.40947 1180 ft 0 kts 34°
2026-04-24 15:02 48.36223 14.41416 1456 ft 70 kts 326°
2026-04-24 15:02 48.36167 14.40982 1338 ft 102 kts 180°
2026-04-24 15:02 48.35654 14.41044 1095 ft 12 kts 325°
2026-04-24 15:02 48.35655 14.41044 1093 ft 7 kts 336°
2026-04-24 15:03 48.35741 14.40982 1095 ft 33 kts 322°
2026-04-24 15:03 48.35677 14.40763 1157 ft 0 kts 216°
2026-04-24 15:03 48.35192 14.40536 1610 ft 82 kts 178°
2026-04-24 15:03 48.35200 14.41404 1396 ft 96 kts 57°
2026-04-24 15:04 48.35544 14.41777 1329 ft 59 kts 277°
2026-04-24 15:04 48.35499 14.41178 1248 ft 57 kts 273°
2026-04-24 15:04 48.35467 14.40613 1100 ft 42 kts 272°
2026-04-24 15:04 48.35472 14.40481 1126 ft 0 kts 327°
2026-04-24 15:05 48.35469 14.40484 1125 ft 0 kts 308°
2026-04-24 15:05 48.35467 14.40494 1122 ft 6 kts 291°
2026-04-24 15:06 48.35463 14.40525 1113 ft 1 kts 251°
2026-04-24 15:06 48.35454 14.40535 1106 ft 1 kts 60°
2026-04-24 15:06 48.35458 14.40543 1103 ft 12 kts 55°
2026-04-24 15:06 48.35603 14.40728 1091 ft 0 kts 51°
2026-04-24 15:07 48.35108 14.40463 1615 ft 78 kts 219°
2026-04-24 15:07 48.34459 14.40193 1523 ft 104 kts 210°
2026-04-24 15:07 48.33773 14.39720 1603 ft 108 kts 220°
2026-04-24 15:07 48.33098 14.39243 1766 ft 111 kts 201°
2026-04-24 15:08 48.32553 14.38610 1896 ft 98 kts 240°
2026-04-24 15:08 48.32146 14.37866 2038 ft 93 kts 234°
2026-04-24 15:08 48.31655 14.37242 2057 ft 94 kts 229°
2026-04-24 15:08 48.31074 14.36631 2111 ft 101 kts 231°
2026-04-24 15:09 48.30678 14.35786 2052 ft 101 kts 263°
2026-04-24 15:09 48.30243 14.34744 1794 ft 127 kts 224°
2026-04-24 15:09 48.29576 14.34047 2087 ft 97 kts 229°
2026-04-24 15:09 48.29061 14.33399 2146 ft 98 kts 232°
2026-04-24 15:10 48.28677 14.32630 2235 ft 93 kts 248°
2026-04-24 15:10 48.28325 14.31729 2124 ft 105 kts 245°
2026-04-24 15:10 48.27931 14.30805 2108 ft 107 kts 237°
2026-04-24 15:10 48.27444 14.30053 2167 ft 94 kts 236°
2026-04-24 15:11 48.27023 14.29222 1962 ft 107 kts 239°
2026-04-24 15:11 48.26462 14.28461 1889 ft 109 kts 227°
2026-04-24 15:11 48.25963 14.27694 1929 ft 99 kts 243°
2026-04-24 15:11 48.25578 14.26827 1870 ft 100 kts 245°
2026-04-24 15:12 48.25241 14.25922 1848 ft 98 kts 250°
2026-04-24 15:12 48.24403 14.24107 1582 ft 106 kts 240°
2026-04-24 15:12 48.24136 14.23536 1438 ft 95 kts 246°
2026-04-24 15:13 48.23807 14.22784 1278 ft 81 kts 241°
2026-04-24 15:13 48.23524 14.22120 1147 ft 70 kts 265°
2026-04-24 15:13 48.23421 14.21489 1003 ft 58 kts 270°
2026-04-24 15:13 48.23386 14.20949 967 ft 51 kts 275°
2026-04-24 15:14 48.23382 14.20461 967 ft 33 kts 275°
2026-04-24 15:14 48.23373 14.20212 969 ft 16 kts 260°
2026-04-24 15:14 48.23369 14.20094 970 ft 9 kts 265°
2026-04-24 15:14 48.23351 14.19984 970 ft 14 kts 232°
2026-04-24 15:15 48.23287 14.19857 973 ft 16 kts 234°
2026-04-24 15:15 48.23204 14.19734 977 ft 20 kts 257°
2026-04-24 15:15 48.23189 14.19560 968 ft 12 kts 239°
2026-04-24 15:15 48.23079 14.19377 974 ft 17 kts 219°
2026-04-24 15:16 0.00894 0.00001 53808 ft 0 kts